Voltar ao catálogo

OBJECT H

AtivoSSO
NORAD 100136·UNKNOWN·🇨🇳 China

Lançado Jul 22, 2026 de Yellow Sea Launch Area

Loading…

Próximas Passagens (próximas 24 horas)

TLE

AtualizadoSource: Space-Track

Época: Sep 14, 2026, 04:18 UTC

1 A0136U 26168H   26257.17980809  .00003116  00000-0  19540-3 0  9990
2 A0136  97.5366 338.0221 0021155 146.6631 213.5936 15.09877635  8163

Acompanhe OBJECT H em tempo real com AllMySat

Download on the App Store